This is the latest recevied weather packets stored in our database for station/object WX4SGA. If no packets are shown the sender has not sent any weather packets the latest 10 day(s).
| Time | Temp. | Humidity | Pressure | Rain* | Wind** | Luminosity | Snow |
|---|---|---|---|---|---|---|---|
| 1777708842 | 15° C | 99% | 1009.8 hPa | 0 mm | - | 0 W/m² | - |
| 1777708538 | 15° C | 99% | 1009.8 hPa | 1.78 mm | - | 0 W/m² | - |
| 1777708237 | 15° C | 99% | 1009.8 hPa | 6.6 mm | - | 0 W/m² | - |
| 1777707934 | 15° C | 99% | 1010.2 hPa | 12.7 mm | - | 0 W/m² | - |
| 1777707630 | 15° C | 99% | 1010.5 hPa | 22.1 mm | - | 0 W/m² | - |
| 1777707326 | 15° C | 99% | 1010.5 hPa | 26.92 mm | - | 0 W/m² | - |
| 1777707023 | 15° C | 99% | 1010.5 hPa | 17.53 mm | - | 0 W/m² | - |
| 1777706721 | 15° C | 99% | 1010.8 hPa | 7.87 mm | - | 0 W/m² | - |
| 1777706419 | 15° C | 99% | 1010.8 hPa | 4.83 mm | - | 0 W/m² | - |
| 1777706117 | 15° C | 99% | 1010.8 hPa | 3.05 mm | - | 0 W/m² | - |
| 1777705814 | 15° C | 99% | 1010.8 hPa | 4.83 mm | - | 0 W/m² | - |
| 1777705512 | 15° C | 99% | 1010.8 hPa | 1.78 mm | - | 0 W/m² | - |
| 1777705210 | 15° C | 99% | 1010.8 hPa | 0 mm | - | 0 W/m² | - |
| 1777704909 | 15° C | 99% | 1010.8 hPa | 0 mm | - | 0 W/m² | - |
| 1777704606 | 15° C | 99% | 1011.2 hPa | 0 mm | - | 0 W/m² | - |
| 1777704304 | 15° C | 99% | 1011.2 hPa | 0 mm | - | 0 W/m² | - |
| 1777704001 | 15.56° C | 98% | 1011.9 hPa | 0 mm | - | 0 W/m² | - |
| 1777703699 | 15.56° C | 98% | 1012.5 hPa | 0 mm | - | 0 W/m² | - |
| 1777703396 | 15° C | 99% | 1011.9 hPa | 0 mm | - | 0 W/m² | - |
| 1777703093 | 15° C | 99% | 1011.2 hPa | 0 mm | - | 0 W/m² | - |
| 1777702792 | 15° C | 99% | 1012.2 hPa | 0 mm | - | 0 W/m² | - |
| 1777702489 | 15° C | 99% | 1012.5 hPa | 0 mm | - | 0 W/m² | - |
| 1777702184 | 15.56° C | 99% | 1012.2 hPa | 1.27 mm | - | 0 W/m² | - |
| 1777701880 | 15° C | 99% | 1012.2 hPa | 0 mm | - | 0 W/m² | - |
| 1777701577 | 15° C | 99% | 1012.5 hPa | 0 mm | - | 0 W/m² | - |
* Rain latest hour (hover to see other rain measurements)
** Current wind speed in m/s (hover to see current wind gust speed)